www.pogodaiklimat.ru

Погода и климат >> Архив погоды >> Россия >> Магаданская область >> Усть-Омчуг


ПОГОДА в Усть-Омчуге

  • Прогноз погоды в Усть-Омчуге
  • Монитор погоды в Усть-Омчуге

АРХИВ ПОГОДЫ в Усть-Омчуге

Время (UTC), дата Ветер
(напр.,м/с)
 
Видим.   Явления Облачность Т
(С)
Тd
(С)
f
(%)
Тe
(С)
Тes
(С)
Комфортность P
(гПа)
Po
(гПа)
Тmin
(С)
Tmax
(С)
R
(мм)
R24
(мм)
S
(см)
15 19.03 Ю 1 50 км 9/0
[Ac trans Ci fib]
-33.4 -36.7 72 -38 -38 опасность
обморожения
1024.2 944.2
18 19.03 Ю 1 50 км ледяные иглы {снег} 6/0
[Ci fib]
-37.7 -41.4 68 -43 -43 опасность
обморожения
1026.2 944.7
21 19.03 штиль 0 50 км ледяные иглы {снег} 6/0
[Ac trans Ci fib]
-37.7 -41.4 68 -38 -37 опасность
обморожения
1026.5 944.9 -38.9 29
00 20.03 штиль 0 50 км {снег} 9/0
[Ac trans Ci fib]
-25.8 -31.9 56 -26 -22 1022.2 944.7
03 20.03 СВ 3 50 км 9/1 1000 м
[Sc Ac trans Ci fib]
-17.2 -26.5 44 -24 -22 1018.8 944.0
06 20.03 С 3 50 км 9/1 1000 м
[Sc Ac trans Ci fib]
-16.8 -25.8 46 -24 -23 1018.6 944.0
09 20.03 С 2 50 км 9/0
[Ac trans Ci fib]
-20.1 -27.4 52 -26 -26 1020.6 944.9 -16.1
12 20.03 СВ 2 50 км 9/0
[Ac trans Ci fib]
-26.0 -29.9 70 -33 -33 опасность
обморожения
1023.5 945.9
15 20.03 штиль 0 50 км 9/0
[Ac trans Ci fib]
-30.7 -33.7 75 -31 -31 опасность
обморожения
1025.3 946.1
18 20.03 СВ 1 50 км ледяные иглы {снег} 8/0
[Ci fib]
-34.0 -37.4 71 -39 -39 опасность
обморожения
1026.3 946.0
21 20.03 штиль 0 50 км ледяные иглы {снег} 6/0
[Ac trans Ci fib]
-34.7 -38.1 71 -35 -34 опасность
обморожения
1026.5 945.9 -35.6 29
00 21.03 ЮВ 2 50 км {снег} 9/0
[Ac trans Cs]
-21.4 -29.5 48 -27 -24 1021.3 945.2
03 21.03 С 4 50 км позёмок 9/0
[Ac trans Cs]
-17.1 -26.2 45 -25 -23 1019.0 944.3
06 21.03 СВ 4 50 км позёмок 10/0
[Ac trans Cs]
-16.3 -25.0 47 -24 -24 1018.5 944.1
09 21.03 С 3 50 км {метель} 10/0
[Ac As]
-17.1 -24.7 52 -24 -24 1019.1 944.3 -16.2
12 21.03 С 5
{10}
20 км слаб. снег {метель} 10/3 1000 м
[Sc Ac trans Cs]
-17.7 -23.6 60 -27 -27 1019.5 944.6
15 21.03 С 6-10
{12}
20 км слаб. снег {метель} 10/3 1000 м
[Sc Ac trans Cs]
-17.8 -23.4 62 -28 -28 1019.4 944.5
18 21.03 С 5
{12}
20 км слаб. снег {метель} 10/4 1000 м
[Sc Ac trans Cs]
-17.8 -21.8 71 -27 -27 1019.1 944.2
21 21.03 С 6-10
{13}
20 км слаб. снег {метель} 10/3 1000 м
[Sc Ac As]
-17.7 -21.2 74 -28 -28 1018.6 943.7 -18.1 0.3 29
00 22.03 С 4
{11}
10 км слаб. ливневой снег 10/5 1000 м
[Cb cap Ac trans Cs]
-15.7 -19.7 71 -24 -23 1017.8 943.5
03 22.03 С 4
{11}
10 км слаб. ливневой снег {метель} 10/5 1000 м
[Cb cap As op]
-14.6 -19.0 69 -22 -22 1016.9 943.1
06 22.03 С 4
{10}
20 км слаб. ливневой снег {метель} 10/5 1000 м
[Cb cap As op]
-14.4 -17.7 76 -22 -22 1015.8 942.1
09 22.03 С 3 20 км слаб. ливневой снег {метель} 10/5 1000 м
[Cb cap Ac trans Cs]
-15.4 -17.7 82 -22 -22 1016.1 942.0 -14.3 0.7
12 22.03 СВ 4 20 км слаб. ливневой снег {метель} 9/5 1000 м
[Cb cap Ac und]
-16.7 -19.1 82 -25 -25 1016.2 941.8
15 22.03 СВ 3 20 км слаб. снег 9/3 1000 м
[Sc Ac trans Cs]
-18.2 -20.5 82 -25 -25 1015.2 940.5
18 22.03 ЮЗ 1 20 км слаб. снег 10/0
[Ac As]
-20.5 -22.4 85 -24 -24 1014.3 938.9
21 22.03 З 1 10 км слаб. снег 10/1 1000 м
[Sc Ac As]
-18.1 -19.9 86 -21 -21 1012.1 937.6 -20.5 0.8 30
00 23.03 ЮВ 1 10 км слаб. ливневой снег 10/5 1000 м
[Cb cap Ac As]
-13.9 -17.3 75 -16 -15 1009.1 936.0
03 23.03 СВ 4 50 км в посл. час ливневой снег 9/3 1000 м
[Cb calv Ac trans Ci fib]
-9.9 -15.3 65 -17 -15 1005.4 933.6
06 23.03 С 5 50 км позёмок {ливн. осадки} 10/0
[Ac As]
-10.7 -16.0 65 -19 -18 1004.3 932.4
09 23.03 В 2 50 км {метель} 9/1 1000 м
[Sc Ac trans Ci fib]
-13.5 -17.7 71 -18 -18 1005.5 932.7 -9.9 0.2
12 23.03 СВ 2 50 км {метель} 9/0
[Ac trans Ci fib]
-16.8 -19.6 79 -22 -22 1006.4 932.7
15 23.03 штиль 0 50 км 9/0
[Ac trans Ci fib]
-23.7 -25.8 83 -24 -24 1007.9 932.1
18 23.03 ЮЗ 1 50 км 9/0
[Ac trans Ci fib]
-27.3 -29.7 80 -31 -31 опасность
обморожения
1008.8 931.9
21 23.03 штиль 0 50 км 9/0
[Ac trans Ci fib]
-27.0 -29.5 79 -27 -27 1008.8 932.0 -28.7 31
00 24.03 ЮЗ 1 50 км 9/0
[Ac trans Ci fib]
-15.5 -20.3 67 -18 -14 1004.6 931.4
03 24.03 С 5 50 км позёмок 9/0
[Ci fib]
-9.9 -17.0 56 -18 -15 1002.2 930.7
06 24.03 С 4 50 км позёмок 9/0
[Ci fib]
-8.9 -16.8 53 -15 -14 1002.1 930.9
09 24.03 С 4 50 км позёмок 9/0
[Ac trans Ci fib]
-12.1 -17.8 62 -19 -19 1004.4 932.1 -8.5
12 24.03 В 2 50 км {метель} 9/0
[Ac trans Ci fib]
-18.0 -21.4 75 -23 -23 1007.4 933.3
15 24.03 З 1 50 км 9/0
[Ci fib]
-27.0 -29.3 81 -31 -31 опасность
обморожения
1010.9 933.9
18 24.03 штиль 0 50 км ледяные иглы {снег} 8/0
[Ci fib]
-31.0 -33.9 76 -31 -31 опасность
обморожения
1012.4 934.1
21 24.03 штиль 0 50 км ледяные иглы {снег} 9/0
[Ci fib]
-31.3 -34.3 75 -31 -31 опасность
обморожения
1013.1 934.6 -33.2 30
00 25.03 штиль 0 50 км {снег} 9/0
[Ci fib]
-16.1 -23.0 55 -16 -11 1007.8 934.2
03 25.03 СВ 3 50 км {метель} 8/0
[Ci fib]
-8.3 -17.5 47 -14 -10 1004.4 933.1
06 25.03 С 2 50 км {метель} 6/0
[Ci fib]
-7.6 -17.3 46 -12 -10 1003.8 932.7
09 25.03 С 1 50 км {метель} 4/0
[Ci fib]
-12.7 -18.7 61 -15 -15 1006.3 933.7 -7.0
12 25.03 В 1 50 км {метель} 4/0
[Ac trans Ci fib]
-16.5 -20.6 71 -19 -19 1008.0 934.3
15 25.03 штиль 0 50 км 3/0
[Ac trans Ci fib]
-25.5 -27.6 82 -26 -26 1010.5 934.0
18 25.03 штиль 0 50 км 1/0
[Ac trans]
-28.6 -31.3 77 -29 -29 1011.1 933.6
21 25.03 СВ 2 50 км 9/1 1000 м
[Sc Ac trans Ci fib]
-23.6 -25.8 82 -30 -30 1008.8 933.0 -29.5 30
00 26.03 С 5 50 км позёмок {ливн. осадки} 8/4 1000 м
[Cb calv Ci fib]
-11.3 -19.5 51 -19 -18 1004.2 932.2
03 26.03 С 4
{11}
50 км позёмок 9/5 1000 м
[Sc Ci fib]
-10.6 -19.4 48 -17 -16 1002.3 930.5
06 26.03 С 5
{12}
50 км позёмок 9/4 1000 м
[Sc Ac trans Ci fib]
-11.8 -19.5 53 -20 -19 1000.8 928.8
09 26.03 С 4
{10}
50 км позёмок 9/4 1000 м
[Sc Ci fib]
-12.8 -19.7 56 -20 -20 1000.5 928.3 -10.4 0.0

 

Местоположение метеостанции Усть-Омчуг (Магаданская область, Россия): широта 61.12 долгота 149.60 высота над уровнем моря 575 м.

В архиве по умолчанию представлена погода в Усть-Омчуге за последнюю неделю. Архивные данные за месяц целиком и за предыдущие месяцы, начиная с января 2011 года, Вы можете получить, выбрав интересующий диапазон дат из раскрывающегося списка и нажав кнопку "Ввод!".


*Определитесь, кто Вы:
робот инопланетянин человек

Внимание! Время в таблицах - всемирное. Для получения местного времени необходимо прибавить поправку, которая равна 11 ч.

Смотрите также архив погоды в соседних городах и на ближайших метеорологических станциях:

Погода в Мадауне (Магаданская область, Россия) (83 км)
Погода на Озере Джека Лондона (Магаданская область, Россия) (107 км)
Погода в Усть-Бохапче (Магаданская область, Россия) (121 км)
Погода в Колымской (Магаданская область, Россия) (134 км)
Погода в Палатке (Магаданская область, Россия) (134 км)
Погода в Талой (Магаданская область, Россия) (145 км)
Погода в Ягодной (Магаданская область, Россия) (155 км)
Погода в Талоне (Магаданская область, Россия) (161 км)
Погода в Армани (Магаданская область, Россия) (165 км)
Погода в Магадане (Магаданская область, Россия) (185 км)

Пояснения к столбцам:

Ветер - указаны скорость ветра в м/с - средняя за 10 мин, порывы в срок и между сроками (в фигурных скобках) и направление, откуда дует ветер: С - северный, СВ - северо-восточный, В - восточный, ЮВ - юго-восточный, Ю - южный, ЮЗ - юго-западный, З - западный, СЗ - северо-западный.
Видимость - горизонтальная дальность видимости в метрах или километрах. При видимости от 1 до 10 км при отсутствии осадков обычно наблюдается дымка, при ухудшении видимости до 1 км и менее - туман. В сухую погоду видимость может ухудшаться дымом, пылью или мглою.
Явления - указаны атмосферные явления, наблюдавшиеся в срок или в последний час перед сроком; фигурными скобками обозначены явления, наблюдавшиеся между сроками (за 1-3 часа до срока); квадратными скобками обозначены град или гололедные отложения с указанием их диаметра в мм.
Облачность - указаны через наклонную черту общая и нижняя облачность в баллах и высота нижней границы облаков в метрах; квадратными скобками обозначены формы облаков: Ci - перистые, Cs - перисто-слоистые, Cc - перисто-кучевые, Ac - высококучевые, As - высокослоистые, Sc - слоисто-кучевые, Ns - слоисто-дождевые, Cu - кучевые, Cb - кучево-дождевые. Подробнее классификацию облаков см. в Атласе облаков (PDF).
T - Температура воздуха - температура, измеренная на высоте 2 м над землей.
Td - Температура точки росы - температура, при понижении до которой содержащийся в воздухе водяной пар достигнет насыщения.
f - Относительная влажность воздуха - влажноcть воздуха, измеренная на высоте 2 м над землей.
Te - Эффективная температура - температура, которую ощущает одетый по сезону человек в тени. Характеристика душности погоды. При расчете учитывается влияние влажности воздуха и скорости ветра на теплоощущения человека.
Tes - Эффективная температура на солнце - температура, которую ощущает человек, с поправкой на солнечный нагрев. Характеристика знойности погоды. Зависит от высоты солнца над горизонтом, облачности и скорости ветра. Ночью, в пасмурную погоду, а также при ветре 12 м/с и более поправка равна нулю.
P - Атмосферное давление - приведенное к уровню моря атмосферное давление.
Po - Атмосферное давление - измеренное на уровне метеостанции атмосферное давление.
Tmin - Минимальная температура - минимум температуры воздуха на высоте 2 м над землей.
Tmax - Максимальная температура - максимум температуры воздуха на высоте 2 м над землей.
R - Количество осадков - Количество выпавших осадков за период времени, мм. При наведении курсора мыши на число - период времени, за который выпало указанное количество осадков.
R24 - Количество осадков - Количество выпавших осадков за 24 часа, мм.
S - Снежный покров - Высота снежного покрова, см. При наведении курсора мыши на число - состояние снежного покрова и степень покрытия местности в баллах.